Time,TemperatureF,DewpointF,PressureIn,WindDirection,WindDirectionDegrees,WindSpeedMPH,WindSpeedGustMPH,Humidity,HourlyPrecipIn,Conditions,Clouds,dailyrainin,SoftwareType,DateUTC
2013-02-19 00:02:00,12.6,1.0,30.22,SSW,208,23.0,-999.0,60,-99.99,,,0.00,weatherlink.com 1.10,2013-02-19 07:02:00,
2013-02-19 00:17:00,12.5,1.0,30.21,South,179,23.0,-999.0,61,-99.99,,,0.00,weatherlink.com 1.10,2013-02-19 07:17:00,
2013-02-19 00:33:00,12.4,1.0,30.21,South,180,25.0,-999.0,60,-99.99,,,0.00,weatherlink.com 1.10,2013-02-19 07:33:00,
2013-02-19 00:48:00,12.5,1.0,30.20,South,177,25.0,-999.0,59,-99.99,,,0.00,weatherlink.com 1.10,2013-02-19 07:48:00,
2013-02-19 01:03:00,12.5,0.0,30.20,South,185,25.0,-999.0,57,-99.99,,,0.00,weatherlink.com 1.10,2013-02-19 08:03:00,
2013-02-19 01:18:00,12.1,-1.0,30.19,SSW,198,28.0,-999.0,56,-99.99,,,0.00,weatherlink.com 1.10,2013-02-19 08:18:00,
2013-02-19 01:33:00,12.8,-2.0,30.19,South,187,22.0,-999.0,52,-99.99,,,0.00,weatherlink.com 1.10,2013-02-19 08:33:00,
2013-02-19 01:48:00,12.7,-3.0,30.19,South,187,26.0,-999.0,50,-99.99,,,0.00,weatherlink.com 1.10,2013-02-19 08:48:00,
2013-02-19 02:04:00,13.5,-3.0,30.20,SSW,201,21.0,-999.0,47,-99.99,,,0.00,weatherlink.com 1.10,2013-02-19 09:04:00,
2013-02-19 02:19:00,14.0,-5.0,30.18,SSW,207,21.0,-999.0,43,-99.99,,,0.00,weatherlink.com 1.10,2013-02-19 09:19:00,
2013-02-19 02:34:00,13.5,-5.0,30.19,SSW,209,19.0,-999.0,43,-99.99,,,0.00,weatherlink.com 1.10,2013-02-19 09:34:00,
2013-02-19 02:49:00,15.4,-8.0,30.18,SSW,204,23.0,-999.0,34,-99.99,,,0.00,weatherlink.com 1.10,2013-02-19 09:49:00,
2013-02-19 03:04:00,14.4,-7.0,30.17,South,190,27.0,-999.0,38,-99.99,,,0.00,weatherlink.com 1.10,2013-02-19 10:04:00,
2013-02-19 03:19:00,15.6,-8.0,30.16,South,190,27.0,-999.0,35,-99.99,,,0.00,weatherlink.com 1.10,2013-02-19 10:19:00,
2013-02-19 03:35:00,14.0,-6.0,30.15,SSW,200,26.0,-999.0,40,-99.99,,,0.00,weatherlink.com 1.10,2013-02-19 10:35:00,
2013-02-19 03:50:00,13.2,-6.0,30.16,SSW,197,21.0,-999.0,43,-99.99,,,0.00,weatherlink.com 1.10,2013-02-19 10:50:00,
2013-02-19 04:05:00,13.5,-6.0,30.16,South,183,22.0,-999.0,42,-99.99,,,0.00,weatherlink.com 1.10,2013-02-19 11:05:00,
2013-02-19 04:20:00,14.8,-7.0,30.15,South,190,29.0,-999.0,37,-99.99,,,0.00,weatherlink.com 1.10,2013-02-19 11:20:00,
2013-02-19 04:35:00,15.2,-7.0,30.16,SSW,194,22.0,-999.0,36,-99.99,,,0.00,weatherlink.com 1.10,2013-02-19 11:35:00,
2013-02-19 04:50:00,15.0,-8.0,30.16,SSW,205,23.0,-999.0,35,-99.99,,,0.00,weatherlink.com 1.10,2013-02-19 11:50:00,
2013-02-19 05:05:00,15.1,-9.0,30.16,South,190,19.0,-999.0,34,-99.99,,,0.00,weatherlink.com 1.10,2013-02-19 12:05:00,
2013-02-19 05:21:00,15.3,-9.0,30.16,SSW,196,24.0,-999.0,33,-99.99,,,0.00,weatherlink.com 1.10,2013-02-19 12:21:00,
2013-02-19 05:36:00,15.5,-9.0,30.16,South,188,19.0,-999.0,33,-99.99,,,0.00,weatherlink.com 1.10,2013-02-19 12:36:00,
2013-02-19 05:51:00,16.0,-9.0,30.16,South,189,22.0,-999.0,32,-99.99,,,0.00,weatherlink.com 1.10,2013-02-19 12:51:00,
2013-02-19 06:06:00,16.1,-9.0,30.15,SSW,194,23.0,-999.0,32,-99.99,,,0.00,weatherlink.com 1.10,2013-02-19 13:06:00,
2013-02-19 06:21:00,16.2,-10.0,30.16,SSW,200,23.0,-999.0,30,-99.99,,,0.00,weatherlink.com 1.10,2013-02-19 13:21:00,
2013-02-19 06:36:00,16.2,-11.0,30.16,South,191,16.0,-999.0,29,-99.99,,,0.00,weatherlink.com 1.10,2013-02-19 13:36:00,
2013-02-19 06:52:00,16.0,-10.0,30.15,South,184,18.0,-999.0,30,-99.99,,,0.00,weatherlink.com 1.10,2013-02-19 13:52:00,
2013-02-19 07:07:00,16.6,-11.0,30.14,SSE,168,20.0,-999.0,28,-99.99,,,0.00,weatherlink.com 1.10,2013-02-19 14:07:00,
2013-02-19 07:22:00,16.7,-12.0,30.14,SSW,194,24.0,-999.0,27,-99.99,,,0.00,weatherlink.com 1.10,2013-02-19 14:22:00,
2013-02-19 07:37:00,16.7,-12.0,30.14,South,182,17.0,-999.0,27,-99.99,,,0.00,weatherlink.com 1.10,2013-02-19 14:37:00,
2013-02-19 07:52:00,17.0,-12.0,30.14,SSW,198,24.0,-999.0,26,-99.99,,,0.00,weatherlink.com 1.10,2013-02-19 14:52:00,
2013-02-19 08:07:00,18.2,-14.0,30.14,SSW,195,21.0,-999.0,23,-99.99,,,0.00,weatherlink.com 1.10,2013-02-19 15:07:00,
2013-02-19 08:24:00,19.1,-15.0,30.14,SSW,193,19.0,-999.0,21,-99.99,,,0.00,weatherlink.com 1.10,2013-02-19 15:24:00,
2013-02-19 08:38:00,19.7,-14.0,30.14,SSW,199,11.0,-999.0,21,-99.99,,,0.00,weatherlink.com 1.10,2013-02-19 15:38:00,
2013-02-19 08:53:00,20.1,-14.0,30.15,SSW,200,24.0,-999.0,21,-99.99,,,0.00,weatherlink.com 1.10,2013-02-19 15:53:00,
2013-02-19 09:08:00,21.2,-14.0,30.15,South,175,19.0,-999.0,20,-99.99,,,0.00,weatherlink.com 1.10,2013-02-19 16:08:00,
2013-02-19 09:23:00,22.2,-13.0,30.14,SSE,163,19.0,-999.0,20,-99.99,,,0.00,weatherlink.com 1.10,2013-02-19 16:23:00,
2013-02-19 09:38:00,22.7,-11.0,30.13,South,175,22.0,-999.0,22,-99.99,,,0.00,weatherlink.com 1.10,2013-02-19 16:38:00,
2013-02-19 09:54:00,24.0,-11.0,30.13,South,178,19.0,-999.0,21,-99.99,,,0.00,weatherlink.com 1.10,2013-02-19 16:54:00,
2013-02-19 10:09:00,24.4,-11.0,30.13,SSW,194,13.0,-999.0,20,-99.99,,,0.00,weatherlink.com 1.10,2013-02-19 17:09:00,
2013-02-19 10:24:00,25.2,-11.0,30.13,SSE,160,9.0,-999.0,20,-99.99,,,0.00,weatherlink.com 1.10,2013-02-19 17:24:00,
2013-02-19 10:39:00,26.3,-12.0,30.12,South,172,10.0,-999.0,18,-99.99,,,0.00,weatherlink.com 1.10,2013-02-19 17:39:00,
2013-02-19 10:54:00,26.9,-12.0,30.11,South,172,15.0,-999.0,18,-99.99,,,0.00,weatherlink.com 1.10,2013-02-19 17:54:00,
2013-02-19 11:10:00,27.8,-12.0,30.10,South,178,16.0,-999.0,17,-99.99,,,0.00,weatherlink.com 1.10,2013-02-19 18:10:00,
2013-02-19 11:25:00,28.8,-10.0,30.09,SSE,166,17.0,-999.0,18,-99.99,,,0.00,weatherlink.com 1.10,2013-02-19 18:25:00,
2013-02-19 11:40:00,29.6,-9.0,30.09,South,171,14.0,-999.0,18,-99.99,,,0.00,weatherlink.com 1.10,2013-02-19 18:40:00,
2013-02-19 11:55:00,29.2,-10.0,30.08,South,180,12.0,-999.0,18,-99.99,,,0.00,weatherlink.com 1.10,2013-02-19 18:55:00,
2013-02-19 12:10:00,29.5,-9.0,30.08,SSW,196,19.0,-999.0,18,-99.99,,,0.00,weatherlink.com 1.10,2013-02-19 19:10:00,
2013-02-19 12:26:00,30.4,-7.0,30.06,SW,220,9.0,-999.0,19,-99.99,,,0.00,weatherlink.com 1.10,2013-02-19 19:26:00,
2013-02-19 12:41:00,28.6,-7.0,30.05,SSW,211,13.0,-999.0,21,-99.99,,,0.00,weatherlink.com 1.10,2013-02-19 19:41:00,
2013-02-19 12:57:00,27.6,-7.0,30.04,South,182,14.0,-999.0,22,-99.99,,,0.00,weatherlink.com 1.10,2013-02-19 19:57:00,
2013-02-19 13:11:00,27.3,-5.0,30.03,South,188,11.0,-999.0,24,-99.99,,,0.00,weatherlink.com 1.10,2013-02-19 20:11:00,
2013-02-19 13:26:00,26.7,-6.0,30.02,SSW,197,5.0,-999.0,24,-99.99,,,0.00,weatherlink.com 1.10,2013-02-19 20:26:00,
2013-02-19 13:41:00,26.6,-4.0,30.02,SSW,197,5.0,-999.0,26,-99.99,,,0.00,weatherlink.com 1.10,2013-02-19 20:41:00,
2013-02-19 13:57:00,28.6,-1.0,30.00,South,190,13.0,-999.0,28,-99.99,,,0.00,weatherlink.com 1.10,2013-02-19 20:57:00,
2013-02-19 14:12:00,31.1,1.0,30.00,SW,236,8.0,-999.0,28,-99.99,,,0.00,weatherlink.com 1.10,2013-02-19 21:12:00,
2013-02-19 14:27:00,31.2,2.0,29.98,SW,217,12.0,-999.0,29,-99.99,,,0.00,weatherlink.com 1.10,2013-02-19 21:27:00,
2013-02-19 14:42:00,31.2,1.0,29.98,SSW,192,9.0,-999.0,28,-99.99,,,0.00,weatherlink.com 1.10,2013-02-19 21:42:00,
2013-02-19 14:57:00,30.1,1.0,29.97,SSW,204,10.0,-999.0,29,-99.99,,,0.00,weatherlink.com 1.10,2013-02-19 21:57:00,
2013-02-19 15:12:00,31.7,1.0,29.96,South,184,6.0,-999.0,27,-99.99,,,0.00,weatherlink.com 1.10,2013-02-19 22:12:00,
2013-02-19 15:29:00,32.6,0.0,29.95,SE,140,8.0,-999.0,25,-99.99,,,0.00,weatherlink.com 1.10,2013-02-19 22:29:00,
2013-02-19 15:43:00,32.4,-4.0,29.95,SSE,159,17.0,-999.0,21,-99.99,,,0.00,weatherlink.com 1.10,2013-02-19 22:43:00,
2013-02-19 15:58:00,31.7,-4.0,29.94,SSE,167,11.0,-999.0,21,-99.99,,,0.00,weatherlink.com 1.10,2013-02-19 22:58:00,
2013-02-19 16:13:00,30.4,-5.0,29.93,South,171,19.0,-999.0,21,-99.99,,,0.00,weatherlink.com 1.10,2013-02-19 23:13:00,
2013-02-19 16:28:00,29.4,-5.0,29.93,South,169,14.0,-999.0,22,-99.99,,,0.00,weatherlink.com 1.10,2013-02-19 23:28:00,
2013-02-19 16:43:00,28.7,-5.0,29.93,South,169,10.0,-999.0,23,-99.99,,,0.00,weatherlink.com 1.10,2013-02-19 23:43:00,
2013-02-19 16:59:00,28.0,-5.0,29.92,SSE,165,9.0,-999.0,24,-99.99,,,0.00,weatherlink.com 1.10,2013-02-19 23:59:00,
2013-02-19 17:14:00,27.7,-5.0,29.91,South,182,8.0,-999.0,24,-99.99,,,0.00,weatherlink.com 1.10,2013-02-20 00:14:00,
2013-02-19 17:29:00,27.5,-4.0,29.91,South,179,6.0,-999.0,25,-99.99,,,0.00,weatherlink.com 1.10,2013-02-20 00:29:00,
2013-02-19 17:44:00,27.0,-5.0,29.90,South,179,7.0,-999.0,25,-99.99,,,0.00,weatherlink.com 1.10,2013-02-20 00:44:00,
2013-02-19 17:59:00,26.9,-5.0,29.90,SSW,192,4.0,-999.0,25,-99.99,,,0.00,weatherlink.com 1.10,2013-02-20 00:59:00,
2013-02-19 18:15:00,26.5,-4.0,29.90,SSE,148,5.0,-999.0,26,-99.99,,,0.00,weatherlink.com 1.10,2013-02-20 01:15:00,
2013-02-19 18:31:00,26.1,-3.0,29.90,ESE,117,4.0,-999.0,28,-99.99,,,0.00,weatherlink.com 1.10,2013-02-20 01:31:00,
2013-02-19 18:45:00,26.0,-3.0,29.90,SE,137,4.0,-999.0,28,-99.99,,,0.00,weatherlink.com 1.10,2013-02-20 01:45:00,
2013-02-19 19:00:00,25.8,-3.0,29.89,SE,140,7.0,-999.0,28,-99.99,,,0.00,weatherlink.com 1.10,2013-02-20 02:00:00,
2013-02-19 19:15:00,25.4,-4.0,29.88,SSE,165,10.0,-999.0,28,-99.99,,,0.00,weatherlink.com 1.10,2013-02-20 02:15:00,
2013-02-19 19:30:00,25.1,-3.0,29.88,South,186,6.0,-999.0,29,-99.99,,,0.00,weatherlink.com 1.10,2013-02-20 02:30:00,
2013-02-19 19:45:00,24.6,-2.0,29.87,South,185,7.0,-999.0,31,-99.99,,,0.00,weatherlink.com 1.10,2013-02-20 02:45:00,
2013-02-19 20:01:00,24.2,-2.0,29.86,South,184,11.0,-999.0,32,-99.99,,,0.00,weatherlink.com 1.10,2013-02-20 03:01:00,
2013-02-19 20:16:00,24.2,-1.0,29.85,South,174,12.0,-999.0,33,-99.99,,,0.00,weatherlink.com 1.10,2013-02-20 03:16:00,
2013-02-19 20:31:00,24.9,-1.0,29.84,South,179,12.0,-999.0,32,-99.99,,,0.00,weatherlink.com 1.10,2013-02-20 03:31:00,
2013-02-19 20:46:00,24.7,-1.0,29.84,South,183,8.0,-999.0,32,-99.99,,,0.00,weatherlink.com 1.10,2013-02-20 03:46:00,
2013-02-19 21:01:00,24.8,-2.0,29.83,SSW,194,7.0,-999.0,31,-99.99,,,0.00,weatherlink.com 1.10,2013-02-20 04:01:00,
2013-02-19 21:17:00,24.1,-1.0,29.83,SSE,165,7.0,-999.0,33,-99.99,,,0.00,weatherlink.com 1.10,2013-02-20 04:17:00,
2013-02-19 21:32:00,24.6,-2.0,29.82,South,185,6.0,-999.0,32,-99.99,,,0.00,weatherlink.com 1.10,2013-02-20 04:32:00,
2013-02-19 21:47:00,24.9,-3.0,29.82,South,171,8.0,-999.0,30,-99.99,,,0.00,weatherlink.com 1.10,2013-02-20 04:47:00,
2013-02-19 22:02:00,24.6,-4.0,29.81,SE,130,5.0,-999.0,28,-99.99,,,0.00,weatherlink.com 1.10,2013-02-20 05:02:00,
2013-02-19 22:32:00,23.4,-4.0,29.79,SSE,153,7.0,-999.0,30,-99.99,,,0.00,weatherlink.com 1.10,2013-02-20 05:32:00,
2013-02-19 22:48:00,22.5,-3.0,29.78,SSE,167,10.0,-999.0,32,-99.99,,,0.00,weatherlink.com 1.10,2013-02-20 05:48:00,
2013-02-19 23:03:00,23.6,-4.0,29.77,South,169,12.0,-999.0,30,-99.99,,,0.00,weatherlink.com 1.10,2013-02-20 06:03:00,
2013-02-19 23:18:00,22.5,-3.0,29.76,South,185,11.0,-999.0,33,-99.99,,,0.00,weatherlink.com 1.10,2013-02-20 06:18:00,
2013-02-19 23:33:00,23.5,-4.0,29.76,South,183,10.0,-999.0,30,-99.99,,,0.00,weatherlink.com 1.10,2013-02-20 06:33:00,
2013-02-19 23:48:00,23.6,-4.0,29.76,SSW,196,9.0,-999.0,29,-99.99,,,0.00,weatherlink.com 1.10,2013-02-20 06:48:00,